{"data":{"norad_id":58232,"intl_designator":"2023-171C","name":"STARLINK-30880","alt_names":[],"object_type":"PAYLOAD","status":"ACTIVE","operator":null,"country":"US","launch_date":"2023-11-08","launch_site_code":"AFETR","launch_vehicle":null,"mission":null,"orbit_class":"UNKNOWN","rcs_meters":null,"size_class":null,"mass_kg":null,"dimensions":null,"purposes":["comms"],"wikipedia_slug":null,"has_3d_model":false,"image_url":null,"decayed_at":null,"tle_current":{"epoch":"2026-09-20T16:53:23.589600Z","epoch_age_seconds":125916,"freshness":"FRESH","line1":"1 58232U 23171C   26263.70374525 -.00007475  00000+0 -26261-3 0  9990","line2":"2 58232  43.0028 263.5405 0001983 282.8716  77.1914 15.27547974159565","mean_motion":15.27547974,"eccentricity":0.0001983,"inclination_deg":43.0028,"raan_deg":263.5405,"arg_perigee_deg":282.8716,"mean_anomaly_deg":77.1914,"bstar":-0.00026261,"rev_number":15956,"period_min":94.268725075079,"perigee_km":481.78440286077,"apogee_km":484.50558730002,"semimajor_km":6861.2819950804,"source":"CELESTRAK","updated_at":"2026-09-21T09:00:33.836400Z"}}}